This demonstration page uses our WeatherBlox Daily Observations layout. Learn more.

Left ArrowRight Arrow

40.92945, -100.16068

Hourly Observations for September 6, 2020

Temp ( °F °C ) Dew Point ( °F °C ) Humidity (%) Winds ( mph kmh ) Pressure ( in mb ) Visibility ( mi km ) Precip ( " mm )
12:15 am 00:15 Clear 78 25.5 58 14.5 51 51 S 13 20 29.88 1012 10 16 0.00 0.00
12:35 am 00:35 Clear 77 25.2 58 14.3 51 51 S 17 28 29.87 1011 10 16 0.00 0.00
12:55 am 00:55 Clear 77 25.2 58 14.3 51 51 SSW 17 28 29.87 1011 10 16 0.00 0.00
1:15 am 01:15 Clear 77 25 58 14.2 51 51 SSW 14 22 29.87 1012 10 16 0.00 0.00
1:35 am 01:35 Clear 77 24.8 57 14.1 51 51 S 12 19 29.86 1011 10 16 0.00 0.00
1:55 am 01:55 Clear 76 24.6 58 14.3 53 53 S 13 20 29.85 1011 10 16 0.00 0.00
2:15 am 02:15 Clear 76 24.4 58 14.4 54 54 S 12 19 29.85 1011 10 16 0.00 0.00
2:35 am 02:35 Clear 76 24.5 58 14.5 54 54 SSW 14 22 29.83 1010 10 16 0.00 0.00
2:55 am 02:55 Clear 76 24.5 58 14.5 54 54 SSW 15 24 29.82 1010 10 16 0.00 0.00
3:15 am 03:15 Clear 76 24.5 58 14.5 54 54 SSW 14 22 29.82 1010 10 16 0.00 0.00
3:35 am 03:35 Clear 76 24.2 58 14.5 55 55 S 14 22 29.81 1009 10 16 0.00 0.00
3:55 am 03:55 Clear 75 24.1 58 14.5 55 55 SSW 16 26 29.80 1009 10 16 0.00 0.00
4:15 am 04:15 Clear 75 24.1 58 14.5 55 55 SSW 17 28 29.79 1009 10 16 0.00 0.00
4:35 am 04:35 Clear 75 24 58 14.6 56 56 SSW 16 26 29.79 1009 10 16 0.00 0.00
4:55 am 04:55 Clear 75 23.7 58 14.6 57 57 SSW 16 26 29.78 1009 10 16 0.00 0.00
5:15 am 05:15 Clear 74 23.5 58 14.6 57 57 SSW 15 24 29.78 1009 10 16 0.00 0.00
5:35 am 05:35 Clear 74 23.3 58 14.7 59 59 SSW 12 19 29.78 1009 10 16 0.00 0.00
5:55 am 05:55 Clear 74 23.2 58 14.7 59 59 SSW 13 20 29.79 1009 10 16 0.00 0.00
6:15 am 06:15 Clear 73 23 58 14.7 60 60 SSW 13 20 29.78 1008 10 16 0.00 0.00
6:35 am 06:35 Clear 73 22.7 58 14.6 60 60 SSW 13 20 29.77 1008 10 16 0.00 0.00
6:55 am 06:55 Clear 73 22.7 58 14.6 60 60 SSW 14 22 29.77 1008 10 16 0.00 0.00
7:15 am 07:15 Sunny 72 22.4 58 14.5 61 61 SW 12 19 29.77 1008 10 16 0.00 0.00
7:35 am 07:35 Sunny 72 22.2 58 14.5 62 62 SW 12 19 29.77 1008 10 16 0.00 0.00
7:55 am 07:55 Sunny 72 22.1 58 14.5 62 62 SSW 10 17 29.76 1008 10 16 0.00 0.00
8:15 am 08:15 Sunny 72 22.3 58 14.6 62 62 SSW 9 15 29.75 1008 10 16 0.00 0.00
8:35 am 08:35 Sunny 73 22.6 58 14.6 61 61 WSW 7 11 29.77 1008 10 16 0.00 0.00
8:55 am 08:55 Sunny 74 23.3 58 14.7 59 59 SW 12 19 29.74 1007 10 16 0.00 0.00
9:15 am 09:15 Sunny 76 24.2 58 14.4 54 54 SW 12 19 29.73 1007 10 16 0.00 0.00
9:35 am 09:35 Sunny 76 24.5 57 14.1 52 52 WSW 9 15 29.74 1007 10 16 0.00 0.00
9:55 am 09:55 Sunny 76 24.6 57 13.9 51 51 WSW 7 11 29.74 1007 10 16 0.00 0.00
10:15 am 10:15 Sunny 77 25.1 57 13.8 50 50 W 12 19 29.74 1007 10 16 0.00 0.00
10:35 am 10:35 Sunny 78 25.3 56 13.4 48 48 W 8 13 29.74 1007 10 16 0.00 0.00
10:55 am 10:55 Sunny 78 25.7 56 13.5 47 47 WNW 8 13 29.74 1007 10 16 0.00 0.00
11:15 am 11:15 Sunny 79 26.2 57 13.9 47 47 NNW 7 11 29.75 1007 10 16 0.00 0.00
11:35 am 11:35 Sunny 81 27.2 58 14.5 46 46 NNW 9 15 29.74 1007 10 16 0.00 0.00
11:55 am 11:55 Sunny 84 28.7 60 15.6 45 45 NNW 8 13 29.73 1007 10 16 0.00 0.00
12:15 pm 12:15 Sunny 88 31.1 57 14 35 35 NNE 15 24 29.72 1006 10 16 0.00 0.00
12:35 pm 12:35 Sunny 89 31.4 56 13.4 33 33 NNE 17 28 29.72 1006 10 16 0.00 0.00
12:55 pm 12:55 Sunny 90 32 55 13 31 31 NNE 13 20 29.71 1006 10 16 0.00 0.00
1:15 pm 13:15 Sunny 92 33.1 55 12.8 29 29 NNE 16 26 29.71 1006 10 16 0.00 0.00
1:35 pm 13:35 Sunny 93 33.7 52 11 25 25 NE 17 28 29.70 1006 10 16 0.00 0.00
1:55 pm 13:55 Sunny 93 33.7 51 10.5 24 24 NE 15 24 29.70 1006 10 16 0.00 0.00
2:15 pm 14:15 Sunny 94 34.6 52 11.3 24 24 NE 13 20 29.69 1006 10 16 0.00 0.00
2:35 pm 14:35 Sunny 93 34 51 10.5 24 24 NE 18 30 29.70 1006 10 16 0.00 0.00
2:55 pm 14:55 Sunny 92 33.1 54 12 28 28 NE 16 26 29.71 1006 10 16 0.00 0.00
3:15 pm 15:15 Sunny 93 33.7 54 12 27 27 NNE 13 20 29.70 1006 10 16 0.00 0.00
3:35 pm 15:35 Sunny 94 34.6 53 11.9 25 25 NNE 14 22 29.69 1006 10 16 0.00 0.00
3:55 pm 15:55 Sunny 94 34.7 47 8.2 19 19 NNE 15 24 29.70 1006 10 16 0.00 0.00
4:15 pm 16:15 Sunny 95 34.8 48 8.7 20 20 NNE 15 24 29.70 1006 10 16 0.00 0.00
4:35 pm 16:35 Sunny 94 34.2 49 9.5 22 22 NE 14 22 29.71 1006 10 16 0.00 0.00
4:55 pm 16:55 Sunny 94 34.2 50 10 23 23 NE 12 19 29.71 1006 10 16 0.00 0.00
5:15 pm 17:15 Sunny 93 33.9 52 10.9 24 24 NE 10 17 29.71 1006 10 16 0.00 0.00
5:35 pm 17:35 Sunny 92 33.6 52 11.2 25 25 NE 12 19 29.72 1006 10 16 0.00 0.00
5:55 pm 17:55 Sunny 91 33 53 11.8 27 27 NE 8 13 29.73 1007 10 16 0.00 0.00
6:15 pm 18:15 Sunny 90 32.2 55 12.5 30 30 NE 6 9 29.73 1007 10 16 0.00 0.00
6:35 pm 18:35 Sunny 88 31.1 56 13.3 34 34 NNE 6 9 29.74 1007 10 16 0.00 0.00
6:55 pm 18:55 Sunny 86 30.2 56 13.5 36 36 NE 6 9 29.75 1007 10 16 0.00 0.00
7:15 pm 19:15 Sunny 85 29.4 56 13.4 37 37 NE 3 6 29.74 1007 10 16 0.00 0.00
7:35 pm 19:35 Sunny 82 27.8 57 13.8 42 42 NE 5 7 29.77 1008 10 16 0.00 0.00
7:55 pm 19:55 Sunny 78 25.8 58 14.2 49 49 NE 5 7 29.78 1009 10 16 0.00 0.00
8:15 pm 20:15 Clear 76 24.5 57 13.8 51 51 NNE 7 11 29.80 1009 10 16 0.00 0.00
8:35 pm 20:35 Clear 71 21.9 59 15.2 66 66 NNE 7 11 29.84 1010 7 11 0.00 0.00
8:55 pm 20:55 Clear 71 21.9 56 13.5 59 59 NNE 8 13 29.85 1011 7 11 0.00 0.00
9:15 pm 21:15 Clear 73 22.7 54 12.1 51 51 NE 7 11 29.85 1011 10 16 0.00 0.00
9:35 pm 21:35 Clear 72 22.1 53 11.7 52 52 NE 7 11 29.85 1011 10 16 0.00 0.00
9:55 pm 21:55 Clear 69 20.5 54 12.1 59 59 NE 7 11 29.87 1011 10 16 0.00 0.00
10:15 pm 22:15 Clear 68 20.1 53 11.5 58 58 ENE 8 13 29.87 1012 10 16 0.00 0.00
10:35 pm 22:35 Clear 68 19.8 54 12 61 61 NE 7 11 29.88 1012 10 16 0.00 0.00
10:55 pm 22:55 Clear 68 19.9 53 11.6 59 59 NE 9 15 29.87 1012 10 16 0.00 0.00
11:15 pm 23:15 Clear 68 20 52 11.3 57 57 NE 10 17 29.87 1012 10 16 0.00 0.00
11:35 pm 23:35 Clear 68 19.8 51 10.8 56 56 NE 9 15 29.86 1011 10 16 0.00 0.00
11:55 pm 23:55 Clear 66 18.7 51 10.6 59 59 E 3 6 29.88 1012 10 16 0.00 0.00

Powered by AerisWeather